Regional Weather Roundup
Issued by NWS Portland, ME

Home | Current Version | Previous Version | Text Only | Print | Product List | Glossary On
Versions: 1 2 3 4 5 6 7 8 9 10 11 12 13 14 15 16 17 18 19 20 21 22 23 24 25 26 27 28 29 30 31 32 33 34 35 36 37 38 39 40 41 42 43 44 45 46 47 48 49 50
000
ASUS41 KGYX 292210
RWRGYX
WEATHER ROUNDUP FOR MAINE AND NEW HAMPSHIRE
NATIONAL WEATHER SERVICE GRAY ME
600 PM EDT MON AUG 29 2016

MEZ002-005-006-010-012-015-018-020-021-024-026-027-029-292300-
MAINE

CITY           SKY/WX    TMP DP  RH WIND       PRES   REMARKS
PORTLAND       SUNNY     77  52  41 NW15G25   30.07R
SANFORD        MOSUNNY   77  55  46 NW12G20   30.07R
BAR HARBOR     MOSUNNY   74  56  53 N9G21     29.98S
WISCASSET      PTSUNNY   75  54  47 VRB5      30.05R
ROCKLAND         N/A     75  56  51 NW8       30.01R
FRYEBURG       PTSUNNY   74  54  49 NW9       30.11R
LEWISTONAUBURN MOSUNNY   73  54  51 NW16G25   30.08R
AUGUSTA        MOSUNNY   73  53  49 NW13G22   30.06R
WATERVILLE     MOSUNNY   73  56  54 NW15      30.03R
BANGOR         MOSUNNY   74  55  51 NW18      30.01R
GREENVILLE       N/A     66  49  54 N15G22    30.05R
MILLINOCKET    MOSUNNY   72  50  45 N12G21    30.02R
HOULTON        MOSUNNY   68  53  58 N14G23    29.97R
PRESQUE ISLE   SUNNY     68  54  60 NW10G17   30.01R
FRENCHVILLE    MOSUNNY   67  52  58 NW8       30.00R
CARIBOU        SUNNY     69  54  58 NW10G20   29.99R
$$

NHZ002-005-008-009-011-012-014-292300-
NEW HAMPSHIRE

CITY           SKY/WX    TMP DP  RH WIND       PRES   REMARKS
PORTSMOUTH     MOSUNNY   79  53  40 NW13      30.05R
ROCHESTER      SUNNY     76  52  43 NW20G26   30.07R
NASHUA         MOSUNNY   80  53  39 N14G23    30.08S
MANCHESTER     MOSUNNY   80  50  34 N17G25    30.08R
CONCORD        MOSUNNY   78  53  41 NW14G24   30.11R
LACONIA        SUNNY     73  55  53 W8G25     30.14R
PLYMOUTH       FAIR      72  53  52 NW15G24   30.14R
BERLIN         CLOUDY    69  53  56 VRB6      30.16R
WHITEFIELD     CLOUDY    69  55  60 NW9       30.18R
JAFFREY        SUNNY     77  50  38 NW7G17    30.14R
KEENE          SUNNY     78  55  44 N13       30.12R
LEBANON        MOSUNNY   75  54  47 N13G23    30.16R
MT WASHINGTON  FOG       45  45 100 NW40G54     N/A  VSB 0
$$

VTZ005-007-008-292300-
VERMONT

CITY           SKY/WX    TMP DP  RH WIND       PRES   REMARKS
ST JOHNSBURY     N/A     70  54  56 MISG      30.17R
MONTPELIER     CLOUDY    68  55  63 NW8       30.23R
BURLINGTON     MOSUNNY   75  53  46 N9        30.17S
$$

MAZ007-012-024-CTZ003-RIZ002-NYZ038-NYZ072-292300-
SOUTHERN NEW ENGLAND AND NY

CITY           SKY/WX    TMP DP  RH WIND       PRES   REMARKS
WORCESTER      SUNNY     78  53  41 N9        30.12R
NANTUCKET      SUNNY     80  61  52 NE14      30.04R
PROVIDENCE     MOSUNNY   86  55  34 NW10      30.05R
HARTFORD       MOSUNNY   84  55  36 N12       30.08R
ALBANY         MOSUNNY   81  55  40 NW8       30.11S
NEW YORK CITY  MOSUNNY   89  58  34 N9        30.06R
$$

ANZ081-ANZ082-ANZ150-NHZ014-MEZ023>029-292300-
COASTAL MARINE OBSERVATIONS

STATION/POSITION TIME  TEMP    WIND        PRES    WAVE
                       AIR SEA DIR/SP/G            HT/PER
                 (UTC) (F)     (DEG/KT/KT) (MB)    (FT/S)
MOUNT DESERT ROC 2200   66     310/ 14/ 14 1014.8R
MATINICUS ROCK   2200   70     330/ 13/ 14 1015.9R
ISLE OF SHOALS   2200   77     310/ 21/ 23 1017.1R
JEFFREYS LEDGE   2138      66                N/A     3/13
CASHES LEDGE BUO 2150   69 67  290/ 14/ 16 1016.4R   4/13
GEORGES BANK BUO 2150   71 71              1015.2F   4/12
$$

.............KEY..............
   WCI - WIND CHILL
   TC  - TEMPERATURE IN CELSIUS
   VSB - VISIBILITY IN MILES
   HX  - HEAT INDEX
   FAIR- INDICATES FEW OR NO CLOUDS BELOW 12,000 FT, WITH NO
         SIGNIFICANT WEATHER AND/OR OBSTRUCTIONS TO VISIBILITY.





USA.gov is the U.S. government's official web portal to all federal, state and local government web resources and services.